| time (UTC) | temp F | wind direction | speed MPH | gust MPH | rain 1hr in | rain 24hr in | rain mn in | humidity % | barometer mb |
| 20260502213553 | 64 | 25 | 3.0 | 4.0 | 0.00 | 0.00 | 0.00 | 83 | 1014.1 |
| 20260502212544 | 64 | 21 | 4.0 | 5.0 | 0.00 | 0.00 | 0.00 | 83 | 1014.2 |
| 20260502211556 | 64 | 49 | 4.0 | 6.0 | 0.00 | 0.00 | 0.00 | 82 | 1014.3 |
| 20260502210529 | 64 | 17 | 5.0 | 9.0 | 0.00 | 0.00 | 0.00 | 81 | 1014.3 |
| 20260502205521 | 65 | 45 | 5.0 | 8.0 | 0.00 | 0.00 | 0.00 | 81 | 1014.4 |
| 20260502204614 | 65 | 61 | 3.0 | 4.0 | 0.00 | 0.00 | 0.00 | 81 | 1014.3 |
| 20260502203605 | 65 | 40 | 7.0 | 10.0 | 0.00 | 0.00 | 0.00 | 81 | 1014.1 |
| 20260502202558 | 65 | 26 | 5.0 | 8.0 | 0.00 | 0.00 | 0.00 | 81 | 1014.1 |
| 20260502201550 | 65 | 39 | 5.0 | 10.0 | 0.00 | 0.00 | 0.00 | 81 | 1014.0 |
| 20260502200542 | 65 | 45 | 4.0 | 6.0 | 0.00 | 0.00 | 0.00 | 81 | 1014.0 |
| 20260502195557 | 65 | 45 | 4.0 | 6.0 | 0.00 | 0.00 | 0.00 | 82 | 1013.8 |
| 20260502194548 | 65 | 39 | 4.0 | 8.0 | 0.00 | 0.00 | 0.00 | 81 | 1013.7 |
| 20260502193519 | 65 | 36 | 5.0 | 8.0 | 0.00 | 0.00 | 0.00 | 82 | 1013.7 |
| 20260502192612 | 65 | 24 | 5.0 | 9.0 | 0.00 | 0.00 | 0.00 | 83 | 1013.7 |
| 20260502191605 | 65 | 27 | 6.0 | 9.0 | 0.00 | 0.00 | 0.00 | 82 | 1013.6 |
| 20260502190557 | 65 | 45 | 6.0 | 8.0 | 0.00 | 0.00 | 0.00 | 82 | 1013.7 |
| 20260502185549 | 65 | 30 | 5.0 | 8.0 | 0.00 | 0.00 | 0.00 | 82 | 1013.8 |
| 20260502184542 | 66 | 35 | 7.0 | 13.0 | 0.00 | 0.00 | 0.00 | 81 | 1013.6 |
| 20260502183533 | 66 | 37 | 6.0 | 11.0 | 0.00 | 0.00 | 0.00 | 81 | 1013.5 |
| 20260502182547 | 66 | 21 | 7.0 | 11.0 | 0.00 | 0.00 | 0.00 | 80 | 1013.6 |
| 20260502181518 | 66 | 29 | 4.0 | 9.0 | 0.00 | 0.00 | 0.00 | 80 | 1013.7 |
| 20260502180612 | 66 | 19 | 6.0 | 9.0 | 0.00 | 0.00 | 0.00 | 80 | 1013.7 |
| 20260502163602 | 68 | 33 | 6.0 | 11.0 | 0.00 | 0.00 | 0.00 | 76 | 1014.4 |
| 20260502162554 | 68 | 50 | 8.0 | 13.0 | 0.00 | 0.00 | 0.00 | 75 | 1014.3 |
| 20260502161546 | 69 | 52 | 7.0 | 11.0 | 0.00 | 0.00 | 0.00 | 74 | 1014.5 |
| 20260502160600 | 70 | 45 | 7.0 | 9.0 | 0.00 | 0.00 | 0.00 | 73 | 1014.7 |
| 20260502151601 | 70 | 45 | 5.0 | 8.0 | 0.00 | 0.00 | 0.00 | 72 | 1015.0 |
| 20260502150553 | 70 | 32 | 5.0 | 8.0 | 0.00 | 0.00 | 0.00 | 72 | 1015.3 |
| 20260502130522 | 71 | 68 | 4.0 | 7.0 | 0.00 | 0.00 | 0.00 | 72 | 1016.6 |
| 20260502123600 | 70 | 97 | 4.0 | 7.0 | 0.00 | 0.00 | 0.00 | 73 | 1016.7 |
| 20260502122614 | 70 | 34 | 6.0 | 9.0 | 0.00 | 0.00 | 0.00 | 72 | 1016.9 |
| 20260502121545 | 71 | 54 | 5.0 | 11.0 | 0.00 | 0.00 | 0.00 | 71 | 1016.8 |
| 20260502120537 | 72 | 180 | 7.0 | 11.0 | 0.00 | 0.00 | 0.00 | 70 | 1016.9 |
| 20260502115550 | 72 | 84 | 5.0 | 10.0 | 0.00 | 0.00 | 0.00 | 70 | 1016.9 |
| 20260502114522 | 72 | 37 | 6.0 | 10.0 | 0.00 | 0.00 | 0.00 | 71 | 1017.1 |
| 20260502113615 | 72 | 51 | 5.0 | 9.0 | 0.00 | 0.00 | 0.00 | 70 | 1017.2 |
| 20260502112607 | 72 | 55 | 5.0 | 8.0 | 0.00 | 0.00 | 0.00 | 71 | 1017.3 |
| 20260502111620 | 72 | 21 | 5.0 | 11.0 | 0.00 | 0.00 | 0.00 | 69 | 1017.4 |
| 20260502110552 | 72 | 58 | 5.0 | 11.0 | 0.00 | 0.00 | 0.00 | 68 | 1017.4 |
| 20260502105606 | 72 | 78 | 4.0 | 8.0 | 0.00 | 0.00 | 0.00 | 69 | 1017.3 |
| 20260502104537 | 72 | 140 | 7.0 | 12.0 | 0.00 | 0.00 | 0.00 | 70 | 1017.4 |
| 20260502103530 | 72 | 118 | 6.0 | 11.0 | 0.00 | 0.00 | 0.00 | 70 | 1017.4 |
| 20260502102522 | 71 | 41 | 6.0 | 10.0 | 0.00 | 0.00 | 0.00 | 71 | 1017.7 |
| 20260502101615 | 71 | 62 | 5.0 | 8.0 | 0.00 | 0.00 | 0.00 | 72 | 1017.8 |
| 20260502100609 | 71 | 45 | 3.0 | 4.0 | 0.00 | 0.00 | 0.00 | 72 | 1018.0 |
| 20260502090523 | 69 | 81 | 4.0 | 7.0 | 0.00 | 0.00 | 0.00 | 74 | 1018.0 |
| 20260502070553 | 67 | 23 | 4.0 | 7.0 | 0.00 | 0.00 | 0.00 | 75 | 1018.0 |
| 20260502065546 | 67 | 39 | 7.0 | 11.0 | 0.00 | 0.00 | 0.00 | 75 | 1017.9 |
| 20260502064538 | 67 | 54 | 5.0 | 8.0 | 0.00 | 0.00 | 0.00 | 76 | 1017.9 |
| 20260502063531 | 66 | 26 | 5.0 | 9.0 | 0.00 | 0.00 | 0.00 | 77 | 1017.9 |
| 20260502062523 | 66 | 38 | 5.0 | 8.0 | 0.00 | 0.00 | 0.00 | 77 | 1017.9 |
| 20260502060610 | 66 | 45 | 2.0 | 5.0 | 0.00 | 0.00 | 0.00 | 77 | 1017.7 |
| 20260502055601 | 66 | 25 | 4.0 | 8.0 | 0.00 | 0.00 | 0.00 | 78 | 1017.7 |
| 20260502054553 | 66 | 38 | 4.0 | 8.0 | 0.00 | 0.00 | 0.00 | 78 | 1017.7 |
| 20260502053546 | 65 | 20 | 3.0 | 6.0 | 0.00 | 0.00 | 0.00 | 77 | 1017.8 |
| 20260502052600 | 65 | 28 | 4.0 | 6.0 | 0.00 | 0.00 | 0.00 | 78 | 1017.7 |
| 20260502051552 | 65 | 45 | 3.0 | 6.0 | 0.00 | 0.00 | 0.00 | 78 | 1017.7 |
| 20260502050524 | 65 | 23 | 2.0 | 3.0 | 0.00 | 0.00 | 0.00 | 78 | 1017.7 |
| 20260502045516 | 65 | 38 | 3.0 | 5.0 | 0.00 | 0.00 | 0.00 | 77 | 1017.6 |
| 20260502044609 | 65 | 45 | 3.0 | 4.0 | 0.00 | 0.00 | 0.00 | 77 | 1017.7 |
| 20260502043603 | 65 | 36 | 3.0 | 4.0 | 0.00 | 0.00 | 0.00 | 77 | 1017.7 |
| 20260502042555 | 65 | 45 | 3.0 | 5.0 | 0.00 | 0.00 | 0.00 | 77 | 1017.7 |
| 20260502041547 | 65 | 42 | 4.0 | 6.0 | 0.00 | 0.00 | 0.00 | 77 | 1017.7 |
| 20260502040600 | 65 | 16 | 4.0 | 6.0 | 0.00 | 0.00 | 0.00 | 77 | 1017.9 |
| 20260502035533 | 65 | 38 | 4.0 | 8.0 | 0.00 | 0.00 | 0.00 | 78 | 1017.9 |
| 20260502034525 | 65 | 42 | 3.0 | 5.0 | 0.00 | 0.00 | 0.00 | 78 | 1018.0 |
| 20260502033517 | 65 | 37 | 4.0 | 7.0 | 0.00 | 0.00 | 0.00 | 79 | 1017.9 |
| 20260502032611 | 65 | 33 | 4.0 | 7.0 | 0.00 | 0.00 | 0.00 | 79 | 1018.0 |
| 20260502031603 | 65 | 13 | 6.0 | 10.0 | 0.00 | 0.00 | 0.00 | 79 | 1018.0 |
| 20260502030555 | 65 | 35 | 4.0 | 8.0 | 0.00 | 0.00 | 0.00 | 79 | 1017.8 |
| 20260502025548 | 65 | 53 | 4.0 | 7.0 | 0.00 | 0.00 | 0.00 | 79 | 1017.8 |
| 20260502024541 | 65 | 27 | 3.0 | 8.0 | 0.00 | 0.00 | 0.00 | 79 | 1017.9 |
| 20260502023555 | 65 | 12 | 3.0 | 7.0 | 0.00 | 0.00 | 0.00 | 80 | 1017.9 |
| 20260502022526 | 65 | 19 | 3.0 | 5.0 | 0.00 | 0.00 | 0.00 | 80 | 1017.9 |
| 20260502021519 | 65 | 40 | 4.0 | 7.0 | 0.00 | 0.00 | 0.00 | 79 | 1017.9 |
| 20260502020613 | 65 | 45 | 4.0 | 6.0 | 0.00 | 0.00 | 0.00 | 79 | 1018.2 |
| 20260502015606 | 65 | 45 | 5.0 | 7.0 | 0.00 | 0.00 | 0.00 | 79 | 1018.1 |
| 20260502014557 | 65 | 55 | 4.0 | 6.0 | 0.00 | 0.00 | 0.00 | 78 | 1018.1 |
| 20260502013551 | 65 | 74 | 5.0 | 9.0 | 0.00 | 0.00 | 0.00 | 78 | 1018.2 |
| 20260502012543 | 65 | 45 | 3.0 | 6.0 | 0.00 | 0.00 | 0.00 | 78 | 1018.3 |
| 20260502011535 | 65 | 55 | 4.0 | 8.0 | 0.00 | 0.00 | 0.00 | 78 | 1018.4 |
| 20260502010548 | 65 | 62 | 3.0 | 8.0 | 0.00 | 0.00 | 0.00 | 78 | 1018.6 |
| 20260502005520 | 65 | 45 | 4.0 | 7.0 | 0.00 | 0.00 | 0.00 | 79 | 1018.7 |
| 20260502004615 | 65 | 68 | 4.0 | 7.0 | 0.00 | 0.00 | 0.00 | 79 | 1018.8 |
| 20260502003606 | 65 | 47 | 3.0 | 8.0 | 0.00 | 0.00 | 0.00 | 78 | 1018.9 |
| 20260502002620 | 65 | 44 | 4.0 | 5.0 | 0.00 | 0.00 | 0.00 | 78 | 1019.1 |
| 20260502001551 | 65 | 45 | 3.0 | 7.0 | 0.00 | 0.00 | 0.00 | 77 | 1019.2 |
| 20260502000544 | 66 | 45 | 3.0 | 5.0 | 0.00 | 0.00 | 0.00 | 78 | 1019.5 |
| 20260501235537 | 66 | 24 | 2.0 | 4.0 | 0.00 | 0.00 | 0.00 | 78 | 1019.6 |
| 20260501234529 | 66 | 45 | 4.0 | 7.0 | 0.00 | 0.00 | 0.00 | 78 | 1019.7 |
| 20260501233522 | 66 | 45 | 4.0 | 5.0 | 0.00 | 0.00 | 0.00 | 77 | 1019.8 |
| 20260501232616 | 66 | 35 | 3.0 | 7.0 | 0.00 | 0.00 | 0.00 | 77 | 1019.8 |
| 20260501231628 | 66 | 48 | 4.0 | 6.0 | 0.00 | 0.00 | 0.00 | 77 | 1019.7 |
| 20260501230600 | 66 | 23 | 3.0 | 5.0 | 0.00 | 0.00 | 0.00 | 77 | 1019.7 |
| 20260501225554 | 66 | 51 | 4.0 | 8.0 | 0.00 | 0.00 | 0.00 | 77 | 1019.7 |
| 20260501224546 | 66 | 48 | 4.0 | 6.0 | 0.00 | 0.00 | 0.00 | 77 | 1019.7 |
| 20260501223539 | 66 | 45 | 4.0 | 8.0 | 0.00 | 0.00 | 0.00 | 78 | 1019.6 |
| 20260501222553 | 66 | 59 | 4.0 | 7.0 | 0.00 | 0.00 | 0.00 | 78 | 1019.7 |
| 20260501221525 | 65 | 42 | 4.0 | 8.0 | 0.00 | 0.00 | 0.00 | 78 | 1019.6 |
| 20260501220517 | 65 | 0 | 3.0 | 4.0 | 0.00 | 0.00 | 0.00 | 80 | 1019.5 |
| 20260501215610 | 65 | 43 | 4.0 | 8.0 | 0.00 | 0.00 | 0.00 | 80 | 1019.6 |
| 20260501214602 | 65 | 8 | 4.0 | 6.0 | 0.00 | 0.00 | 0.00 | 80 | 1019.5 |